Location: Mannheim
(49.4880°N, 8.4650°E)
Time: 06:33:20
(UTC+02:00)

ISS - Pass Details

Date: 18 September 2023
Orbit: 414 x 421 km, 51.6° (Epoch: 02 October)

Event Time Altitude Azimuth Distance (km) Brightness Sun altitude
Rises 21:31:43 0° 261° (W) 2,353 0.9 -19.2°
Reaches altitude 10° 21:33:49 10° 264° (W) 1,493 -0.2 -19.5°
Maximum altitude 21:37:10 69° 348° (NNW) 451 -3.6 -20.0°
Enters shadow 21:37:26 64° 25° (NNE) 467 -3.6 -20.1°
